TimeMST,TemperatureF,Dew PointF,Humidity,Sea Level PressureIn,VisibilityMPH,Wind Direction,Wind SpeedMPH,Gust SpeedMPH,PrecipitationIn,Events,Conditions,WindDirDegrees,DateUTC
12:15 AM,32.0,14.0,48,30.06,10.0,Calm,Calm,-,N/A,,Clear,0,2012-12-06 07:15:00
12:35 AM,30.6,13.5,49,30.05,10.0,NW,4.6,-,N/A,,Clear,310,2012-12-06 07:35:00
12:55 AM,34.5,16.3,48,30.05,10.0,Calm,Calm,-,N/A,,Clear,0,2012-12-06 07:55:00
1:15 AM,31.1,14.7,51,30.05,10.0,Calm,Calm,-,N/A,,Clear,0,2012-12-06 08:15:00
1:35 AM,31.5,13.5,47,30.05,10.0,Calm,Calm,-,N/A,,Clear,0,2012-12-06 08:35:00
1:55 AM,32.2,14.4,48,30.05,10.0,NNW,4.6,-,N/A,,Clear,330,2012-12-06 08:55:00
2:15 AM,30.9,14.5,51,30.05,10.0,Calm,Calm,-,N/A,,Clear,0,2012-12-06 09:15:00
2:35 AM,30.9,14.7,51,30.04,10.0,NW,4.6,-,N/A,,Clear,320,2012-12-06 09:35:00
2:55 AM,29.7,12.7,49,30.05,10.0,Calm,Calm,-,N/A,,Clear,0,2012-12-06 09:55:00
3:15 AM,28.2,11.8,50,30.04,10.0,NNW,3.5,-,N/A,,Clear,340,2012-12-06 10:15:00
3:35 AM,30.9,15.3,52,30.04,10.0,Calm,Calm,-,N/A,,Clear,0,2012-12-06 10:35:00
3:55 AM,30.4,15.8,55,30.03,10.0,Calm,Calm,-,N/A,,Clear,0,2012-12-06 10:55:00
4:15 AM,28.8,15.4,58,30.03,10.0,NW,8.1,-,N/A,,Clear,310,2012-12-06 11:15:00
4:35 AM,30.9,16.5,55,30.03,10.0,NW,4.6,-,N/A,,Clear,320,2012-12-06 11:35:00
4:55 AM,30.4,16.0,55,30.03,10.0,NW,5.8,-,N/A,,Clear,310,2012-12-06 11:55:00
5:15 AM,31.6,16.3,53,30.03,10.0,WNW,5.8,-,N/A,,Clear,300,2012-12-06 12:15:00
5:35 AM,30.4,15.8,55,30.03,10.0,NW,3.5,-,N/A,,Clear,310,2012-12-06 12:35:00
6:35 AM,30.4,16.0,55,30.03,10.0,Calm,Calm,-,N/A,,Clear,0,2012-12-06 13:35:00
6:55 AM,28.8,15.8,58,30.05,10.0,WNW,5.8,-,N/A,,Clear,300,2012-12-06 13:55:00
7:15 AM,29.1,15.3,56,30.04,10.0,WNW,4.6,-,N/A,,Clear,290,2012-12-06 14:15:00
7:35 AM,30.2,15.4,54,30.04,10.0,Calm,Calm,-,N/A,,Clear,0,2012-12-06 14:35:00
7:55 AM,35.8,16.3,45,30.04,10.0,WNW,3.5,-,N/A,,Clear,290,2012-12-06 14:55:00
8:15 AM,39.0,18.1,43,30.05,10.0,NNW,3.5,-,N/A,,Clear,340,2012-12-06 15:15:00
8:35 AM,39.4,17.4,41,30.04,10.0,WNW,4.6,-,N/A,,Clear,290,2012-12-06 15:35:00
8:55 AM,41.2,17.6,39,30.04,10.0,WNW,4.6,-,N/A,,Clear,290,2012-12-06 15:55:00
9:15 AM,43.3,18.3,37,30.05,10.0,WNW,3.5,-,N/A,,Clear,300,2012-12-06 16:15:00
9:35 AM,45.0,18.9,35,30.05,10.0,Calm,Calm,-,N/A,,Clear,0,2012-12-06 16:35:00
9:55 AM,45.5,19.8,36,30.05,10.0,ENE,4.6,-,N/A,,Clear,60,2012-12-06 16:55:00
10:15 AM,47.7,20.1,34,30.05,10.0,ENE,3.5,-,N/A,,Clear,70,2012-12-06 17:15:00
10:35 AM,48.4,20.3,33,30.05,10.0,ENE,3.5,-,N/A,,Clear,60,2012-12-06 17:35:00
10:55 AM,50.0,21.0,32,30.04,10.0,ENE,3.5,-,N/A,,Clear,70,2012-12-06 17:55:00
11:15 AM,52.0,20.1,29,30.02,10.0,Calm,Calm,-,N/A,,Clear,0,2012-12-06 18:15:00
11:35 AM,55.4,20.1,25,30.01,10.0,SE,3.5,-,N/A,,Clear,130,2012-12-06 18:35:00
11:55 AM,56.1,20.8,25,30.00,10.0,ESE,5.8,-,N/A,,Clear,120,2012-12-06 18:55:00
12:15 PM,55.6,20.3,25,29.99,10.0,Calm,Calm,-,N/A,,Clear,0,2012-12-06 19:15:00
12:35 PM,58.3,21.2,24,29.98,10.0,SE,3.5,-,N/A,,Clear,130,2012-12-06 19:35:00
12:55 PM,59.2,21.4,23,29.97,10.0,ESE,5.8,-,N/A,,Clear,110,2012-12-06 19:55:00
1:15 PM,60.1,21.2,22,29.95,10.0,East,5.8,-,N/A,,Clear,90,2012-12-06 20:15:00
1:35 PM,62.4,22.1,21,29.94,10.0,ENE,6.9,-,N/A,,Clear,60,2012-12-06 20:35:00
1:55 PM,62.6,22.1,21,29.93,10.0,NE,5.8,-,N/A,,Clear,50,2012-12-06 20:55:00
2:15 PM,63.0,21.6,20,29.92,10.0,ENE,5.8,-,N/A,,Clear,60,2012-12-06 21:15:00
2:35 PM,63.5,21.4,20,29.91,10.0,NE,4.6,-,N/A,,Clear,40,2012-12-06 21:35:00
2:55 PM,64.0,21.4,20,29.91,10.0,ENE,3.5,-,N/A,,Clear,60,2012-12-06 21:55:00
3:15 PM,64.4,21.2,19,29.91,10.0,East,3.5,-,N/A,,Clear,90,2012-12-06 22:15:00
3:35 PM,64.9,20.5,18,29.91,10.0,Calm,Calm,-,N/A,,Clear,0,2012-12-06 22:35:00
3:55 PM,64.8,20.3,18,29.91,10.0,ESE,5.8,-,N/A,,Clear,110,2012-12-06 22:55:00
4:15 PM,64.6,20.8,19,29.90,10.0,ESE,3.5,-,N/A,,Clear,120,2012-12-06 23:15:00
4:35 PM,63.3,21.2,20,29.91,10.0,Calm,Calm,-,N/A,,Clear,0,2012-12-06 23:35:00
4:55 PM,60.6,20.8,22,29.91,10.0,SSE,4.6,-,N/A,,Clear,160,2012-12-06 23:55:00
5:15 PM,56.7,21.2,25,29.91,10.0,SSW,5.8,-,N/A,,Clear,210,2012-12-07 00:15:00
5:35 PM,55.9,20.7,25,29.91,10.0,SSW,8.1,-,N/A,,Clear,200,2012-12-07 00:35:00
5:55 PM,56.8,19.9,24,29.91,10.0,SSW,9.2,-,N/A,,Clear,200,2012-12-07 00:55:00
6:15 PM,56.3,19.0,23,29.92,10.0,SSW,9.2,-,N/A,,Clear,200,2012-12-07 01:15:00
6:35 PM,55.4,18.3,23,29.93,10.0,SSW,10.4,-,N/A,,Clear,200,2012-12-07 01:35:00
6:55 PM,55.0,17.2,23,29.93,10.0,SW,6.9,-,N/A,,Clear,220,2012-12-07 01:55:00
7:15 PM,54.7,16.7,22,29.93,10.0,South,8.1,-,N/A,,Clear,190,2012-12-07 02:15:00
7:35 PM,53.2,16.7,24,29.93,10.0,SSW,6.9,-,N/A,,Clear,200,2012-12-07 02:35:00
7:55 PM,54.0,16.7,23,29.93,10.0,SSW,5.8,-,N/A,,Clear,200,2012-12-07 02:55:00
8:15 PM,51.1,16.7,26,29.93,10.0,SW,8.1,-,N/A,,Scattered Clouds,220,2012-12-07 03:15:00
8:35 PM,51.4,17.6,26,29.93,10.0,SW,6.9,-,N/A,,Mostly Cloudy,230,2012-12-07 03:35:00
8:55 PM,50.0,17.4,28,29.93,10.0,WSW,5.8,-,N/A,,Mostly Cloudy,240,2012-12-07 03:55:00
9:15 PM,48.9,17.6,29,29.94,10.0,SW,6.9,-,N/A,,Scattered Clouds,230,2012-12-07 04:15:00
9:35 PM,48.0,17.4,30,29.94,10.0,Calm,Calm,-,N/A,,Clear,0,2012-12-07 04:35:00
9:55 PM,49.5,18.0,29,29.94,10.0,Calm,Calm,-,N/A,,Clear,0,2012-12-07 04:55:00
10:15 PM,47.3,17.8,31,29.95,10.0,Calm,Calm,-,N/A,,Scattered Clouds,0,2012-12-07 05:15:00
10:35 PM,45.7,17.2,32,29.95,10.0,Calm,Calm,-,N/A,,Overcast,0,2012-12-07 05:35:00
10:55 PM,44.2,16.3,33,29.94,10.0,Calm,Calm,-,N/A,,Overcast,0,2012-12-07 05:55:00
11:15 PM,46.9,19.2,33,29.94,10.0,WNW,8.1,-,N/A,,Overcast,290,2012-12-07 06:15:00
11:35 PM,50.4,24.3,36,29.94,10.0,West,6.9,-,N/A,,Overcast,260,2012-12-07 06:35:00
11:55 PM,49.1,24.3,38,29.94,10.0,West,6.9,-,N/A,,Overcast,270,2012-12-07 06:55:00